892  
ASUS42 KMHX 242325  
RWRMHX  
WEATHER ROUNDUP FOR EASTERN NORTH CAROLINA  
NATIONAL WEATHER SERVICE NEWPORT/MOREHEAD CITY NC  
700 PM EDT FRI JUN 24 2016  
 
NOTE: "FAIR" INDICATES FEW OR NO CLOUDS BELOW 12,000 FEET  
WITH NO SIGNIFICANT WEATHER AND/OR S TO VISIBILITY
 
 
NCZ015>017-031-032-045>047-102-103-250000-  
NORTH COAST  
 
CITY SKY/WX TMP DP RH WIND PRES REMARKS
 
EDENTON SUNNY 83 71 66 CALM 29.98R  
ELIZABETH CITY SUNNY 83 71 67 CALM 29.97R  
KITTY HAWK CLEAR 83 70 64 CALM 29.97R  
MANTEO SUNNY 80 74 83 CALM 29.98R  
 

 
 
NCZ045>047-081-094-103-104-250000-  
CENTRAL COAST  
 
CITY SKY/WX TMP DP RH WIND PRES REMARKS
 
FRISCO CLOUDY 81 75 82 N3 29.96R  
 

 
 
NCZ095-097-098-100-101-250000-  
SOUTHERN COAST  
 
CITY SKY/WX TMP DP RH WIND PRES REMARKS
 
BEAUFORT CLOUDY 84 76 76 SW7 29.97R  
CEDAR ISLAND NOT AVBL  
JACKSONVILLE CLOUDY 82 71 69 SW3 29.97R  
PINEY ISLAND CLOUDY N/A N/A N/A E6 29.97R  
WILMINGTON LGT RAIN 79 74 84 SW7 29.98R  
 

 
 
NCZ011>013-027>030-043-044-078>080-089-090>093-098-250000-  
COASTAL PLAIN  
 
CITY SKY/WX TMP DP RH WIND PRES REMARKS
 
AHOSKIE MOSUNNY 80 74 81 CALM 29.97R  
CLINTON PTSUNNY 87 77 72 CALM 29.97R  
ELIZABETHTOWN CLOUDY 79 69 72 S6 29.98S  
GOLDSBORO SUNNY 91 71 51 VRB1 29.94S  
GREENVILLE SUNNY 84 75 74 N5 29.98S  
HAVELOCK PTSUNNY 87 72 60 W10 29.97R  
KENANSVILLE PTSUNNY 85 73 68 CALM 29.96S  
KINSTON MOSUNNY 90 70 51 CALM 29.96S  
NEW BERN MOSUNNY 89 71 55 W5 29.96S  
RICHLANDS CLOUDY 84 73 69 S12 29.98R  
ROCKY MOUNT MOSUNNY 86 72 62 VRB3 29.96S  
WASHINGTON SUNNY 83 73 72 N5 29.96R  
WHITEVILLE CLOUDY 74 71 91 S3 29.98R  
 

 
 
AMZ130-135-150-152-154-156-158-170-250-252-270-ANZ085-086-088-633-658-670-250000-  
MARINE OBSERVATIONS  
 
STATION/POSITION TIME TEMP WIND PRES WAVE SWELL
 
AIR SEA DIR/SP/G HT/PER HT/PER  
(UTC) (F) (DEG/KT/KT) (MB) (FT/S) (FT/S)  
CHESAPEAKE LIGHT NOT AVBL  
64 E VA BEACH 2250 74 72 300/ 2/ 4 1014.9 3/ 6 2/ 6  
DUCK 2300 66 1014.3  
2 E DUCK 2211 73 N/A 2/ 6  
OREGON INLET 2300 78 1014.8  
13E OREGON INLT 2300 78 N/A 3/ 6  
HATTERAS CG 2300 80 1014.2  
DIAMOND BUOY 2250 80 80 260/ 6/ 8 1014.4 4/ 6 3/ 6  
CAPE LOOKOUT 2300 81 230/ 7/ 10 1014.5  
BEAUFORT LAB 2300 79 1014.1  
30 SE NEW RVR IN 2308 81 80 250/ 8/ 12 1015.8  
30 SE NEW RVR IN 2225 80 N/A 4/ 7  
27 SE WRIGHTSVLE 2308 69 81 240/ 14/ 19 1015.5  
5 SE WRIGHTSVLE 2308 81 80 240/ 16/ 19 1015.7  
225 S CAPE HAT 2250 80 80 210/ 10/ 12 1018.3 4/ 8 3/ 8  
41 SE CHARLESTON 2250 83 81 200/ 14/ 16 1015.2 4/ 8 2/ 8  
 

 
 
 
CLICK HERE TO GO TO PREVIOUS BULLETINS.

The Nexlab NC Page Main Text Page